Home > Weather > Terre Haute > Past weeks

Flag for USA Past Weather in Terre Haute, Indiana, USA — Yesterday and Last 2 Weeks

Now
73 °F

Clear.


Feels Like: 72 °F
Forecast: 74 / 90 °F
Wind: No wind

Location: Terre Haute International Airport - Hulman Field

Current Time: Jun 26, 2016 at 4:27:39 AM

Latest Report: Jun 26, 2016 at 3:53 AM


Visibility: 10 mi

Pressure: 30.04 "Hg

Humidity: 84%

Dew Point: 68 °F

Location of Terre HauteLocation

Past Weather in Terre Haute — Graph

°F

Terre Haute Temperature Yesterday

Maximum temperature yesterday: 89 °F (at 3:53 PM)
Minimum temperature yesterday: 67 °F (at 5:53 AM)
Average temperature yesterday: 79 °F

High & Low Weather Summary for the Past Weeks

 TemperatureHumidityPressure
High93 °F (Jun 11, 5:53 PM)93% (Jun 24, 5:53 AM)30.26 "Hg (Jun 24, 5:53 AM)
Low61 °F (Jun 18, 5:53 AM)26% (Jun 21, 12:53 PM)29.74 "Hg (Jun 15, 3:53 PM)
Average79 °F64%29.98 "Hg
* Reported Jun 11 2:53 AM — Jun 26 2:53 AM, Terre Haute, Weather by CustomWeather, © 2016

Note: Actual official high and low records may vary slightly from our data, if they occured in-between our weather recording intervals... More about our weather records

Advertising

Terre Haute Weather History for the Previous 24 Hours

Scroll right to see more
 ConditionsComfort  
Time TempWeatherWind HumidityBarometerVisibility
2:53 AM
Sun, Jun 26
74 °FClear.5 mph85%30.04 "Hg10 mi
1:53 AM74 °FClear.5 mph85%30.03 "Hg10 mi
12:53 AM75 °FClear.No wind82%30.04 "Hg10 mi
11:53 PM
Sat, Jun 25
78 °FClear.3 mph74%30.04 "Hg10 mi
10:53 PM79 °FClear.8 mph72%30.02 "Hg10 mi
9:53 PM81 °FSunny.6 mph67%30.03 "Hg10 mi
8:53 PM83 °FSunny.6 mph63%30.04 "Hg10 mi
7:53 PM86 °FSunny.6 mph57%30.04 "Hg10 mi
6:53 PM88 °FSunny.9 mph52%30.03 "Hg10 mi
5:53 PM89 °FSunny.8 mph48%30.03 "Hg10 mi
4:53 PM89 °FSunny.8 mph48%30.05 "Hg10 mi
3:53 PM89 °FSunny.7 mph46%30.05 "Hg10 mi
2:53 PM88 °FSunny.3 mph46%30.06 "Hg10 mi
1:53 PM87 °FPassing clouds.3 mph50%30.08 "Hg10 mi
12:53 PM85 °FSunny.3 mph51%30.09 "Hg10 mi
11:53 AM85 °FSunny.7 mph55%30.11 "Hg10 mi
10:53 AM81 °FSunny.6 mph65%30.11 "Hg10 mi
9:53 AM78 °FSunny.7 mph66%30.11 "Hg10 mi
8:53 AM75 °FSunny.7 mph74%30.11 "Hg10 mi
7:53 AM71 °FSunny.5 mph84%30.09 "Hg10 mi
6:53 AM68 °FClear.No wind87%30.08 "Hg10 mi
5:53 AM67 °FClear.3 mph90%30.07 "Hg10 mi
4:53 AM68 °FClear.No wind90%30.06 "Hg10 mi
Weather by CustomWeather, © 2016

See weather overviewHow to use our weather pages